Hourly Data Report for May 26, 2021

KUGAARUK CLIMATE
NUNAVUT
Current Station Operator: ECCC - MSC

68°32'15.060" N
89°47'47.020" W
15.80 m
2303094
71407
NBB

Download Data

Hourly Data (May 2021)
Hourly Data Report for May 26, 2021
TIME
LST
Temp Definition
°C
Dew Point Definition
°C
Rel Hum Definition
%
Precip. Amount Definition
mm

Wind Dir Definition
10's deg

Wind Spd Definition
km/h
Visibility Definition
km
Stn Press Definition
kPa
Hmdx Definition


Wind Chill Definition


Weather Definition


00:00 -11.0 -12.8 86 0.0 24 19   101.16   -19 LegendNANA
01:00 -10.1 -12.3 84 0.0 25 20   101.17   -18 LegendNANA
02:00 -9.0 -11.7 81 0.0 24 22   101.19   -17 LegendNANA
03:00 -9.6 -12.1 81 0.0 24 23   101.21   -18 LegendNANA
04:00 -8.3 -11.4 78 0.0 26 29   101.20   -17 LegendNANA
05:00 -8.1 -11.3 77 0.0 24 19   101.23   -15 LegendNANA
06:00 -6.9 -10.3 77 0.0 25 22   101.24   -14 LegendNANA
07:00 -6.4 -10.2 74 0.0 26 24   101.25   -14 LegendNANA
08:00 -5.7 -9.9 72 0.0 23 16   101.26   -12 LegendNANA
09:00 -4.5 -8.9 72 0.0 23 17   101.25   -10 LegendNANA
10:00 -3.5 -8.1 71 0.0 24 16   101.26   -9 LegendNANA
11:00 -2.4 -6.8 72 0.0 24 17   101.27   -8 LegendNANA
12:00 -2.3 -7.1 70 0.0 26 19   101.29   -8 LegendNANA
13:00 -2.4 -7.4 69 0.0 27 14   101.34   -7 LegendNANA
14:00 -2.4 -7.4 68 0.0 28 17   101.36   -8 LegendNANA
15:00 -2.7 -6.7 74 0.0 27 21   101.39   -9 LegendNANA
16:00 -2.9 -7.4 71 0.0 29 18   101.41   -9 LegendNANA
17:00 -3.2 -7.1 75 0.0 28 22   101.46   -10 LegendNANA
18:00 -3.5 -6.6 79 0.0 26 14   101.49   -9 LegendNANA
19:00 -4.1 -6.9 81 0.0 28 20   101.51   -10 LegendNANA
20:00 -4.7 -7.4 81 0.0 30 16   101.54   -10 LegendNANA
21:00 -4.7 -6.8 86 0.0 31 15   101.56   -10 LegendNANA
22:00 -4.9 -6.5 89 0.0 29 9   101.58   -9 LegendNANA
23:00 -5.1 -6.6 89 0.0 26 12   101.58   -10 LegendNANA

Notes on Data Quality.

Legend

  • E = Estimated
  • M = Missing
  • NA = Not Available*
  • [empty] = Indicates an unobserved value
Date modified: